TimeCDT,TemperatureF,Dew PointF,Humidity,Sea Level PressureIn,VisibilityMPH,Wind Direction,Wind SpeedMPH,Gust SpeedMPH,PrecipitationIn,Events,Conditions,WindDirDegrees,DateUTC
12:15 AM,53.6,50.9,91,30.02,10.0,Calm,Calm,-,N/A,,Clear,0,2013-10-18 05:15:00
12:35 AM,53.4,51.1,92,30.02,10.0,Calm,Calm,-,N/A,,Clear,0,2013-10-18 05:35:00
12:55 AM,53.6,51.4,92,30.02,10.0,Calm,Calm,-,N/A,,Clear,0,2013-10-18 05:55:00
1:15 AM,53.8,51.8,93,30.02,10.0,Calm,Calm,-,N/A,,Clear,0,2013-10-18 06:15:00
1:35 AM,53.6,51.4,92,30.02,10.0,Calm,Calm,-,N/A,,Clear,0,2013-10-18 06:35:00
1:55 AM,53.6,51.4,92,30.02,4.0,Calm,Calm,-,N/A,,Clear,0,2013-10-18 06:55:00
2:15 AM,53.1,51.1,93,30.02,10.0,Calm,Calm,-,N/A,,Clear,0,2013-10-18 07:15:00
2:35 AM,53.1,51.1,93,30.01,10.0,Calm,Calm,-,N/A,,Clear,0,2013-10-18 07:35:00
2:55 AM,53.1,51.1,93,30.02,10.0,Calm,Calm,-,N/A,,Clear,0,2013-10-18 07:55:00
3:15 AM,53.2,51.3,93,30.01,10.0,Calm,Calm,-,N/A,,Clear,0,2013-10-18 08:15:00
3:35 AM,52.9,51.1,94,30.01,10.0,Calm,Calm,-,N/A,,Scattered Clouds,0,2013-10-18 08:35:00
3:55 AM,53.1,51.3,94,30.01,10.0,Calm,Calm,-,N/A,,Scattered Clouds,0,2013-10-18 08:55:00
4:15 AM,53.2,51.4,94,30.00,10.0,Calm,Calm,-,N/A,,Scattered Clouds,0,2013-10-18 09:15:00
4:35 AM,53.6,51.8,94,30.00,10.0,Calm,Calm,-,N/A,,Scattered Clouds,0,2013-10-18 09:35:00
4:55 AM,53.2,51.4,94,30.00,10.0,Calm,Calm,-,N/A,,Scattered Clouds,0,2013-10-18 09:55:00
5:15 AM,53.4,51.3,92,30.00,10.0,Calm,Calm,-,N/A,,Scattered Clouds,0,2013-10-18 10:15:00
5:35 AM,53.4,51.4,93,30.00,10.0,Calm,Calm,-,N/A,,Scattered Clouds,0,2013-10-18 10:35:00
5:55 AM,53.8,51.3,91,29.99,10.0,Calm,Calm,-,N/A,,Clear,0,2013-10-18 10:55:00
6:15 AM,54.5,51.1,88,29.99,10.0,Calm,Calm,-,N/A,,Scattered Clouds,0,2013-10-18 11:15:00
6:35 AM,54.7,51.6,89,30.00,10.0,Calm,Calm,-,N/A,,Mostly Cloudy,0,2013-10-18 11:35:00
6:55 AM,55.8,52.0,87,30.00,10.0,ENE,3.5,-,N/A,,Overcast,70,2013-10-18 11:55:00
7:15 AM,57.2,51.8,82,29.99,10.0,East,5.8,-,N/A,,Overcast,80,2013-10-18 12:15:00
7:35 AM,57.7,51.6,80,30.00,10.0,East,3.5,-,N/A,,Overcast,100,2013-10-18 12:35:00
7:55 AM,58.1,51.8,80,30.01,10.0,East,4.6,-,N/A,,Overcast,80,2013-10-18 12:55:00
8:15 AM,58.1,52.2,81,30.01,10.0,East,5.8,-,N/A,,Overcast,80,2013-10-18 13:15:00
8:35 AM,58.6,52.7,81,30.01,10.0,East,4.6,-,N/A,,Overcast,90,2013-10-18 13:35:00
8:55 AM,59.5,52.9,79,30.02,10.0,Calm,Calm,-,N/A,,Overcast,0,2013-10-18 13:55:00
9:15 AM,60.6,53.8,78,30.03,10.0,Calm,Calm,-,N/A,,Overcast,0,2013-10-18 14:15:00
9:35 AM,61.3,53.6,76,30.03,10.0,ESE,5.8,-,N/A,,Overcast,110,2013-10-18 14:35:00
9:55 AM,61.7,53.6,75,30.03,10.0,ESE,4.6,-,N/A,,Mostly Cloudy,110,2013-10-18 14:55:00
10:15 AM,61.7,53.4,74,30.03,10.0,ESE,4.6,-,N/A,,Mostly Cloudy,110,2013-10-18 15:15:00
10:35 AM,61.7,53.6,75,30.02,10.0,East,5.8,-,N/A,,Overcast,100,2013-10-18 15:35:00
10:55 AM,61.9,54.7,77,30.02,10.0,East,5.8,-,N/A,,Overcast,100,2013-10-18 15:55:00
11:15 AM,63.5,55.0,74,30.01,10.0,East,6.9,-,N/A,,Overcast,100,2013-10-18 16:15:00
11:35 AM,66.0,55.2,68,30.00,10.0,East,6.9,-,N/A,,Overcast,100,2013-10-18 16:35:00
11:55 AM,66.4,55.0,67,30.00,10.0,ESE,6.9,-,N/A,,Overcast,110,2013-10-18 16:55:00
12:15 PM,66.7,54.5,65,29.99,10.0,East,5.8,-,N/A,,Overcast,100,2013-10-18 17:15:00
12:35 PM,67.6,54.7,63,29.98,10.0,ESE,8.1,-,N/A,,Overcast,110,2013-10-18 17:35:00
12:55 PM,68.0,55.2,64,29.98,10.0,East,5.8,-,N/A,,Overcast,90,2013-10-18 17:55:00
1:15 PM,68.4,55.9,64,29.97,10.0,ENE,5.8,-,N/A,,Overcast,70,2013-10-18 18:15:00
1:35 PM,69.1,55.4,62,29.96,10.0,East,4.6,-,N/A,,Overcast,100,2013-10-18 18:35:00
1:55 PM,69.1,55.4,62,29.95,10.0,East,5.8,-,N/A,,Overcast,90,2013-10-18 18:55:00
2:15 PM,69.6,55.4,61,29.94,10.0,East,4.6,-,N/A,,Overcast,100,2013-10-18 19:15:00
2:35 PM,69.4,55.2,60,29.94,10.0,ESE,4.6,-,N/A,,Overcast,110,2013-10-18 19:35:00
2:55 PM,69.6,54.3,58,29.93,7.0,East,6.9,-,N/A,,Overcast,100,2013-10-18 19:55:00
3:15 PM,70.0,54.0,57,29.93,10.0,East,6.9,-,N/A,,Overcast,90,2013-10-18 20:15:00
3:35 PM,69.3,54.7,60,29.92,5.0,ESE,4.6,-,N/A,,Haze,110,2013-10-18 20:35:00
3:55 PM,69.8,55.4,60,29.92,5.0,East,3.5,-,N/A,,Haze,100,2013-10-18 20:55:00
4:15 PM,69.3,54.9,60,29.93,5.0,ESE,3.5,-,N/A,,Haze,110,2013-10-18 21:15:00
4:35 PM,68.9,52.7,56,29.93,3.0,East,4.6,-,N/A,,Haze,90,2013-10-18 21:35:00
4:55 PM,69.1,53.4,57,29.92,3.0,East,4.6,-,N/A,,Haze,100,2013-10-18 21:55:00
5:15 PM,69.1,53.6,58,29.92,4.0,East,3.5,-,N/A,,Haze,80,2013-10-18 22:15:00
5:35 PM,68.9,54.5,60,29.92,4.0,East,3.5,-,N/A,,Haze,80,2013-10-18 22:35:00
5:55 PM,68.4,55.4,63,29.92,7.0,ENE,3.5,-,N/A,,Overcast,70,2013-10-18 22:55:00
6:15 PM,68.0,55.6,64,29.93,5.0,ENE,3.5,-,N/A,,Haze,70,2013-10-18 23:15:00
6:35 PM,68.0,55.8,65,29.93,1.2,NE,3.5,-,N/A,,Haze,40,2013-10-18 23:35:00
6:55 PM,67.3,56.1,67,29.93,10.0,Calm,Calm,-,N/A,,Overcast,0,2013-10-18 23:55:00
7:15 PM,67.1,55.9,67,29.94,10.0,Calm,Calm,-,N/A,,Overcast,0,2013-10-19 00:15:00
7:35 PM,66.9,56.3,69,29.94,10.0,ENE,4.6,-,N/A,,Overcast,70,2013-10-19 00:35:00
7:55 PM,66.7,56.3,69,29.95,10.0,Calm,Calm,-,N/A,,Overcast,0,2013-10-19 00:55:00
8:15 PM,66.4,56.3,70,29.96,10.0,NE,3.5,-,N/A,,Overcast,50,2013-10-19 01:15:00
8:35 PM,66.4,56.3,70,29.96,10.0,Calm,Calm,-,N/A,,Overcast,0,2013-10-19 01:35:00
8:55 PM,66.2,56.3,70,29.96,10.0,ENE,3.5,-,N/A,,Overcast,70,2013-10-19 01:55:00
9:15 PM,65.5,56.3,72,29.96,10.0,East,3.5,-,N/A,,Overcast,90,2013-10-19 02:15:00
9:35 PM,64.9,56.3,74,29.97,10.0,Calm,Calm,-,N/A,,Overcast,0,2013-10-19 02:35:00
9:55 PM,64.0,57.0,78,29.97,10.0,Calm,Calm,-,N/A,,Mostly Cloudy,0,2013-10-19 02:55:00
10:15 PM,63.0,57.2,81,29.99,10.0,North,4.6,-,N/A,,Mostly Cloudy,350,2013-10-19 03:15:00
10:35 PM,63.5,57.6,81,30.00,10.0,Calm,Calm,-,N/A,,Overcast,0,2013-10-19 03:35:00
10:55 PM,64.4,56.7,76,29.99,10.0,NNE,3.5,-,N/A,,Overcast,20,2013-10-19 03:55:00
11:15 PM,63.5,56.5,78,29.99,10.0,Calm,Calm,-,N/A,,Scattered Clouds,0,2013-10-19 04:15:00
11:35 PM,62.8,56.3,79,29.99,10.0,Calm,Calm,-,N/A,,Clear,0,2013-10-19 04:35:00
11:55 PM,61.7,56.7,84,30.01,10.0,WNW,3.5,-,N/A,,Scattered Clouds,300,2013-10-19 04:55:00